Location: Branche des Alpilles
(43.6087°N, 4.6976°E)
Time: 09:15:42
(UTC+00:00)

FENGYUN 1C DEB - Pass Details

Date: 01 July 2021
Orbit: 782 x 878 km, 99.7° (Epoch: 28 July)

Event Time Altitude Azimuth Distance (km) Brightness Sun altitude
Exits shadow 00:29:37 13° 120° (ESE) 2,158 ? -22.5°
Maximum altitude 00:33:29 30° 64° (ENE) 1,379 ? -22.4°
Drops below altitude 10° 00:37:56 10° 5° (N) 2,350 ? -22.2°
Sets 00:40:29 0° 355° (N) 3,280 ? -22.1°
